Location: Aghk�ilisa
(40.0189°N, 45.0097°E)
Time: 13:52:42
(UTC+00:00)

Cosmos 2016 Rocket - Pass Details

Date: 21 October 2019
Orbit: 947 x 1000 km, 83.0° (Epoch: 11 November)

Event Time Altitude Azimuth Distance (km) Brightness Sun altitude
Rises 16:21:16 0° 354° (N) 3,689 7.2 -25.3°
Reaches altitude 10° 16:23:48 10° 357° (N) 2,745 6.5 -25.8°
Maximum altitude 16:30:06 73° 82° (E) 1,036 3.9 -27.0°
Enters shadow 16:30:44 67° 124° (SE) 1,067 3.9 -27.1°
